CW3081 Weather Reports


Display with metric or nautical units.
time (UTC)temp
F
wind
direction
speed
MPH
gust
MPH
rain 1hr
in
rain 24hr
in
rain mn
in
humidity
%
barometer
mb
20260831010051 78 0 0.0 0.0 0.00 0.00 0.00 87 1017.8
20260831004551 79 0 0.0 0.0 0.00 0.00 0.00 85 1018.0
20260831003100 80 0 0.0 0.0 0.00 0.00 0.00 84 1017.9
20260831001551 82 0 0.0 0.0 0.00 0.00 0.00 82 1017.7
20260831000058 83 0 0.0 0.0 0.00 0.00 0.00 79 1017.7
20260830234603 84 0 0.0 0.0 0.00 0.00 0.00 78 1017.8
20260830233049 85 0 0.0 0.0 0.00 0.00 0.00 76 1017.6
20260830231601 85 0 0.0 0.0 0.00 0.00 0.00 75 1017.8
20260830230056 86 0 0.0 0.0 0.00 0.00 0.00 74 1017.8
20260830224555 87 0 0.0 0.0 0.00 0.00 0.00 71 1017.6
20260830223049 88 0 0.0 0.0 0.00 0.00 0.00 67 1017.8
20260830221559 88 0 0.0 1.0 0.00 0.00 0.00 66 1017.6
20260830220054 88 0 0.0 1.0 0.00 0.00 0.00 67 1017.5
20260830214558 89 273 0.0 1.0 0.00 0.00 0.00 65 1017.4
20260830213054 89 0 0.0 1.0 0.00 0.00 0.00 63 1017.6
20260830211554 89 188 0.0 1.0 0.00 0.00 0.00 63 1017.6
20260830204600 89 245 0.0 2.0 0.00 0.00 0.00 67 1017.7
20260830203117 90 203 0.0 1.0 0.00 0.00 0.00 67 1018.0
20260830201621 90 0 1.0 3.0 0.00 0.00 0.00 64 1018.3
20260830200104 90 264 1.0 2.0 0.00 0.00 0.00 62 1018.5
20260830194606 90 236 1.0 3.0 0.00 0.00 0.00 62 1018.7
20260830193053 90 226 0.0 2.0 0.00 0.00 0.00 64 1018.7
20260830191606 91 0 0.0 2.0 0.00 0.00 0.00 64 1018.8
20260830184557 90 189 0.0 1.0 0.00 0.00 0.00 66 1019.4
20260830183106 90 143 0.0 2.0 0.00 0.00 0.00 66 1019.5
20260830181623 89 147 1.0 2.0 0.00 0.00 0.00 68 1019.7
20260830180101 88 0 0.0 2.0 0.00 0.00 0.00 69 1019.9
20260830174559 88 0 0.0 2.0 0.00 0.00 0.00 68 1019.8
20260830173106 89 238 0.0 2.0 0.00 0.00 0.00 68 1019.8
20260830171550 88 148 1.0 3.0 0.00 0.00 0.00 69 1020.1
20260830170057 87 0 0.0 1.0 0.00 0.00 0.00 74 1020.2
20260830164619 87 209 0.0 3.0 0.00 0.00 0.00 72 1020.3
20260830163108 86 176 0.0 2.0 0.00 0.00 0.00 74 1020.4
20260830161554 85 265 0.0 1.0 0.00 0.00 0.00 77 1020.3
20260830160053 85 221 0.0 2.0 0.00 0.00 0.00 77 1020.5
20260830154559 84 217 0.0 2.0 0.00 0.00 0.00 79 1020.4
20260830153100 84 155 1.0 3.0 0.00 0.00 0.00 78 1020.4
20260830151554 83 0 1.0 3.0 0.00 0.00 0.00 80 1020.4
20260830150053 82 242 0.0 0.0 0.00 0.00 0.00 82 1020.4
20260830144600 81 0 0.0 0.0 0.00 0.00 0.00 84 1020.4
20260830143100 79 0 0.0 2.0 0.00 0.00 0.00 85 1020.4
20260830141555 78 229 0.0 1.0 0.00 0.00 0.00 89 1020.3
20260830140104 76 0 0.0 0.0 0.00 0.00 0.00 93 1020.4
20260830134601 74 0 0.0 1.0 0.00 0.00 0.00 96 1020.4
20260830133137 72 0 0.0 0.0 0.00 0.00 0.00 97 1020.4
20260830131609 70 0 0.0 0.0 0.00 0.00 0.00 97 1020.4
20260830124611 0 0.0 0.0 0.00 0.00 0.00 1020.2
20260830123057 0 0.0 0.0 0.00 0.00 0.00 1020.1
20260830121602 0 0.0 0.0 0.00 0.00 0.00 1020.0
20260830120053 0 0.0 0.0 0.00 0.00 0.00 1019.7
20260830114609 0 0.0 0.0 0.00 0.00 0.00 1019.7
20260830113058 0 0.0 0.0 0.00 0.00 0.00 1019.5
20260830111552 0 0.0 0.0 0.00 0.00 0.00 1019.2
20260830104600 0 0.0 0.0 0.00 0.00 0.00 1019.1
20260830103052 0 0.0 0.0 0.00 0.00 0.00 1019.2
20260830101550 0 0.0 0.0 0.00 0.00 0.00 1019.2
20260830094556 67 0 0.0 0.0 0.00 0.00 0.00 95 1019.2
20260830093049 67 0 0.0 0.0 0.00 0.00 0.00 95 1019.0
20260830091602 67 0 0.0 0.0 0.00 0.00 0.00 95 1019.0
20260830084556 67 0 0.0 0.0 0.00 0.00 0.00 95 1019.0
20260830083110 67 0 0.0 0.0 0.00 0.00 0.00 95 1019.0
20260830081552 67 0 0.0 0.0 0.00 0.00 0.00 95 1018.9
20260830080054 67 0 0.0 0.0 0.00 0.00 0.00 95 1018.8
20260830074551 68 0 0.0 0.0 0.00 0.00 0.00 95 1018.8
20260830073101 68 0 0.0 0.0 0.00 0.00 0.00 95 1018.9
20260830071551 68 0 0.0 0.0 0.00 0.00 0.00 95 1018.9
20260830064558 68 0 0.0 0.0 0.00 0.00 0.00 95 1019.0
20260830063051 68 0 0.0 0.0 0.00 0.00 0.00 95 1019.1
20260830061608 69 0 0.0 0.0 0.00 0.00 0.00 94 1019.2
20260830060101 69 0 0.0 0.0 0.00 0.00 0.00 94 1019.1
20260830054554 69 0 0.0 0.0 0.00 0.00 0.00 94 1019.2
20260830053053 70 0 0.0 0.0 0.00 0.00 0.00 94 1019.2
20260830051558 70 0 0.0 0.0 0.00 0.00 0.00 94 1019.1
20260830050059 70 0 0.0 0.0 0.00 0.00 0.00 94 1019.1
20260830044554 70 0 0.0 0.0 0.00 0.00 0.00 94 1019.1
20260830043049 70 0 0.0 0.0 0.00 0.00 0.00 94 1019.1
20260830041559 71 0 0.0 0.0 0.00 0.00 0.00 94 1018.9
20260830040058 71 0 0.0 0.0 0.00 0.00 0.00 93 1018.9
20260830034559 71 0 0.0 0.0 0.00 0.00 0.00 93 1018.9
20260830033055 71 0 0.0 0.0 0.00 0.00 0.00 93 1018.9
20260830031559 72 0 0.0 0.0 0.00 0.00 0.00 92 1018.8
20260830030056 72 0 0.0 0.0 0.00 0.00 0.00 92 1018.7
20260830024550 73 0 0.0 0.0 0.00 0.00 0.00 92 1018.8
20260830023054 73 0 0.0 0.0 0.00 0.00 0.00 91 1018.7
20260830021559 73 0 0.0 0.0 0.00 0.00 0.00 91 1018.6
20260830020104 74 0 0.0 0.0 0.00 0.00 0.00 90 1018.5
20260830014614 74 0 0.0 0.0 0.00 0.00 0.00 90 1018.4
20260830013111 75 0 0.0 0.0 0.00 0.00 0.00 89 1018.2
20260830011600 76 0 0.0 0.0 0.00 0.00 0.00 88 1017.8